Погода Алуксне

Погода Алуксне : погода сейчас, прогноз погоды и архив. Всё, что Вы хотите узнать о погоде Алуксне!

Поиск расширенной информации на нашем сайте:

Другие новости

Новости СМИ2

Главная страница сайта

Новости сайта

03.07.2017

Напоминаем, что на нашем специализированном сайте Метеоцентр.Азия вы можете получить высокодетализированные автоматические прогнозы погоды по пунктам России, СНГ и мира в авиационном формате (включающие направление и скорость ветра, видимость, явления погоды, количество и форму облачности, нижнюю и верхнюю границу облачности).

Рекомендуем: Прикольный подарок - Авто номера - автомобильные номера имена

Погода Алуксне - сегодня

Время (UTC), дата Ветер
(°,м/с) 
Видим.   Явления Облачность Т
(°С)
Тd
(°С)
f(%) Тe
(°С)
Pmin
(гПа)
dP
(гПа)
Po
(мм)
O2
(г/м3)
Тmin Tmax R s Состояние
почвы
21 14.02.18 110 (В) 10 км  [диам. изморози 1 мм]  ясно 
-11.3 -11.6 98 -11  1029.1  0.4  753  317           
00 15.02.18 110 (В) 10 км  [диам. изморози 2 мм]  ясно 
-14.1 -14.7 95 -14  1029.9  0.5  753  321           
03 15.02.18 100 (В) 10 км  [диам. изморози 3 мм]  ясно 
-15.6 -16.7 91 -16  1030.1  753  322           
06 15.02.18 110 (В) 10 км  [диам. изморози 4 мм]  9/0 верхняя 
[Cs]
-14.4 -15.3 93 -14  1030.4  0.4  753  321  -16.1      19  равномерный
сухой снег
100% 
09 15.02.18 130 (ЮВ) 10 км  [диам. изморози 4 мм]  10/0 средняя, верхняя 
[Ac lent|Cs]
-10.1 -10.8 95 -10  1030.6  0.7  754  316           
12 15.02.18 160 (Ю) 10 км  [диам. изморози 0 мм]  10/3 300 м средняя 
[St|As trans]
-7.3 -9.6 84 -10  1029.4  -0.9  753  313           
15 15.02.18 140 (ЮВ) 4000 м  слаб. ливневой снег  10/10 300 м кучево-дожд. 
[Cb cap]
-7.7 -9.1 90 -9  1029  -0.5  753  312           
18 15.02.18 140 (ЮВ) 10 км  в посл. час ливневой снег  10/10 300 м 
[St]
-7.9 -8.5 95 -9  1028.4  -0.6  752  312    -6.9  0.0     
21 15.02.18 160 (Ю) 4000 м  слаб. ливневой снег  10/10 300 м кучево-дожд. 
[Cb cap]
-7.8 -8.4 95 -9  1027.3  -1  752  312           
00 16.02.18 190 (Ю) 4000 м  слаб. ливневой снег  10/10 300 м кучево-дожд. 
[Cb cap]
-8.1 -8.6 96 -10  1027.1  -0.3  751  313           
03 16.02.18 170 (Ю) 10 км  {ливн. осадки}  9/9 300 м 
[St]
-9 -9.3 98 -9  1026.2  -0.9  751  313           
06 16.02.18 150 (ЮВ) 10 км  {ливн. осадки}  8/4 300 м верхняя 
[St|Ci fib]
-9.6 -10 97 -11  1025.6  -0.7  750  313  -10.1    0.3  20  равномерный
сухой снег
100% 
09 16.02.18 130 (ЮВ) 10 км    9/1 1000 м средняя 
[Cu hum|As op]
-7.8 -8.4 95 -9  1024.8  -0.6  750  311           
12 16.02.18 120 (ЮВ) 4000 м  слаб. ливневой снег  10/10 300 м кучево-дожд. 
[Cb cap]
-5.2 -6.5 91 -8  1023.5  -1  749  308           
15 16.02.18 120 (ЮВ) 4000 м  слаб. ливневой снег  10/10 300 м кучево-дожд. 
[Cb cap]
-5.1 -5.8 95 -7  1022.2  -1.2  748  307           
18 16.02.18 130 (ЮВ) 4000 м  слаб. ливневой снег  10/10 200 м кучево-дожд. 
[Cb cap]
-5 -5.2 99 -6  1021.6  -0.6  748  307    -5  0.8     
21 16.02.18 120 (ЮВ) 4000 м  слаб. ливневой снег  10/10 200 м кучево-дожд. 
[Cb cap]
-4.9 -5 99 -6  1020.7  -0.9  747  306           
00 17.02.18 120 (ЮВ) 4000 м  слаб. ливневой снег  10/10 200 м кучево-дожд. 
[Cb cap]
-4.5 -4.6 99 -4  1020.1  -0.5  746  306           
03 17.02.18 090 (В) 4000 м  слаб. ливневой снег  10/10 200 м кучево-дожд. 
[Cb cap]
-5 -5.1 99 -5  1019.5  -0.7  746  306           
06 17.02.18 080 (В) 4000 м  слаб. ливневой снег  10/10 200 м кучево-дожд. 
[Cb cap]
-4.9 -5 99 -4  1019  -0.4  746  306  -5.3    24  равномерный
сухой снег
100% 
09 17.02.18 070 (В) 4000 м  слаб. ливневой снег  10/10 200 м кучево-дожд. 
[Cb cap]
-3.2 -3.4 99 -3  1018.2  -0.7  745  303           
12 17.02.18 050 (СВ) 4000 м  слаб. ливневой снег  10/10 200 м кучево-дожд. 
[Cb cap]
-2.2 -2.7 96 -2  1017.7  -0.3  745  303           
15 17.02.18 тихо ()   4000 м  слаб. ливневой снег  10/10 300 м кучево-дожд. 
[Cb cap]
-2.6 -2.8 99 -3  1017.9  0.1  745  303           
18 17.02.18 тихо ()   10 км  в посл. час ливневой снег  10/10 300 м кучево-дожд. 
[Cb calv]
-2.8 -2.9 99 -3  1018.2  0.3  745  303    -2.1     
21 17.02.18 350 (С) 4000 м  слаб. ливневой снег  10/10 300 м кучево-дожд. 
[Cb cap]
-2.9 -3 99 -2  1018.5  0.3  745  303           
Время (UTC), дата Ветер
(°,м/с) 
Видим.   Явления Облачность Т
(°С)
Тd
(°С)
f(%) Тe
(°С)
Pmin
(гПа)
dP
(гПа)
Po
(мм)
O2
(г/м3)
Тmin Tmax R s Состояние
почвы

Для получения пояснительной информации подведите курсор к названию столбца.

ПОГОДА Алуксне - архив

Всё, что Вы хотите узнать о погоде Алуксне - удобно и подробно!

Выберите нужную дату (начиная с 1 января 2015* года) и нажмите кнопку "Найти".
Будут отображены архивные сводки погоды по пункту Алуксне, начиная с указанной даты.


Отображать данные в формате CSV (для использования в таблицах Excel)


Внимание! Наш архив погоды предназначен исключительно для личного некоммерческого использования в познавательных целях. Если Вам необходимы официальные справки о состоянии погоды (для производственных, юридических, коммерческих и т.п. целей), обращайтесь в органы Росгидромета.

*Примечание: данная дата относится к архиву по метеостанциям СССР (Россия, СНГ, Балтия).
Архив по метеостанциям Зарубежной Европы и Азии (кроме Китая) хранится 10 дней, по другим регионам земного шара (Китай, Африка, Америка, Австралия, Океания) - 1 день.

Алуксне - район местоположения метеостанции


Название, широта, долгота, высота метеостанции:
Алуксне 57.4°ш. 27°д. 193 м над ур. моря [Латвия]

Дополнительная информация

В oтличие oт бoльшинства пoгoдных сайтoв мы публикуем пoдрoбную метеoинфoрмацию в детальнoм прoфессиoнальнoм фoрмате.

Характеристики температуры и влажнoсти вoздуха измеряются на высoте 2 м в тени вдали oт зданий и деревьев.
Скoрoсть ветра измеряется на высoте 10 м (на урoвне рoста челoвека скoрoсть ветра ниже в 1.5-2 раза). Если метеoстанция нахoдится в гoрoде или в лесу, тo скoрoсть ветра занижена на 2-4 м/с пo сравнению с oткрытым местoм. Скoрoсть ветра над акватoриями крупных рек и oзёр, а также на вершинах хoлмoв на 2-5 м/с выше, чем в oбычных услoвиях.
Атмoсфернoе давление в разных тoчках местнoсти мoжет значительнo oтличаться oт давления на метеoстанции, в зависимoсти oт услoвий рельефа (при пoдъёме на 10 м давление пoнижается примернo на 1 мм рт.ст.).